Theta_e
344 343 342 340 337 336 336 335 334 331 330 332 334 335 337 339 340 338 337 336 336 336 335 335 336 338 338 338 336 335 334 333 332 331 330 329 325 322 323 328 329 329 332 332 334 336 335 334 333 333 332 331 329 326 324 321 320 322 325 327 328 328
344 343 343 341 337 335 336 336 334 331 331 334 337 337 338 340 339 339 338 337 336 336 336 335 335 338 338 338 336 334 334 333 332 331 330 330 329 326 323 325 327 329 331 332 333 335 335 334 333 332 332 330 328 327 325 322 320 321 324 326 327 328
343 344 342 340 338 337 337 336 334 333 334 336 338 339 338 339 339 338 337 336 335 335 335 334 335 337 337 337 336 334 334 334 332 332 331 330 330 329 326 323 324 329 331 331 333 334 335 334 333 332 331 330 329 328 325 322 321 322 325 327 327 328
343 343 342 340 338 338 338 336 334 336 337 337 339 339 339 339 338 337 336 334 333 333 333 332 334 336 336 336 336 335 334 334 332 331 331 331 331 331 329 325 324 330 331 330 332 333 334 334 333 332 331 331 330 329 326 323 322 323 325 327 328 329
343 343 341 339 338 338 338 336 335 338 339 339 339 339 339 339 338 337 335 333 332 332 332 332 333 335 335 335 336 335 334 334 332 332 331 331 331 331 331 328 328 330 330 331 334 334 333 333 333 332 332 332 331 329 325 323 323 323 324 326 328 328
341 341 339 338 338 338 339 337 336 339 340 341 340 339 339 339 337 336 335 333 332 333 332 333 334 333 333 333 335 335 334 333 331 331 331 331 331 331 331 330 330 330 331 333 336 335 334 334 332 332 332 331 331 328 326 325 324 324 324 324 326 326
340 340 339 339 339 340 339 337 337 340 340 341 341 340 339 338 337 336 335 334 333 333 332 334 334 333 333 333 334 334 334 333 330 329 330 331 331 330 331 331 331 331 332 334 334 333 334 334 333 333 332 331 331 329 327 326 325 324 324 324 327 327
341 341 341 340 340 339 338 337 338 340 340 341 341 340 339 338 337 336 335 334 334 333 332 334 335 333 333 333 332 332 333 332 330 328 329 331 330 330 330 330 331 332 333 334 333 332 333 336 335 333 332 331 330 329 328 327 326 325 325 327 329 328
341 341 341 340 340 338 337 337 339 339 339 341 340 340 339 338 337 336 336 335 335 334 333 334 335 334 333 332 332 332 331 331 330 328 328 331 331 330 330 330 329 331 332 332 331 331 333 335 334 332 332 331 330 330 328 327 327 326 326 327 328 328
340 341 341 340 339 337 336 337 339 338 339 340 340 340 339 338 337 336 336 335 336 336 334 335 335 335 334 333 334 333 330 329 329 326 326 328 329 328 329 328 328 329 330 331 331 331 333 334 332 331 331 331 331 330 329 328 327 326 325 325 327 326
339 340 340 339 339 338 338 339 338 338 340 340 339 338 337 336 336 335 334 335 336 337 336 336 335 336 335 334 334 333 330 329 330 329 328 328 328 328 328 329 329 330 331 331 331 331 332 332 331 330 331 331 331 330 328 328 327 325 323 324 327 325
337 338 339 338 338 337 338 339 338 339 339 339 337 336 336 335 334 333 333 334 335 337 337 336 336 337 336 335 333 332 332 331 331 331 331 331 331 331 331 331 331 331 331 331 331 331 332 331 330 330 330 331 331 330 329 328 327 325 323 325 327 325
337 338 338 337 335 334 336 336 337 339 339 338 336 335 335 333 333 333 333 334 336 337 337 336 336 337 336 335 333 333 333 332 332 332 332 332 333 332 332 332 332 331 332 331 330 330 331 331 330 330 330 331 331 330 329 329 328 326 324 324 325 324
337 336 336 335 333 331 332 334 335 338 338 337 336 336 335 334 334 335 336 336 337 337 337 336 336 336 335 335 334 334 334 333 333 333 332 333 334 333 333 333 332 332 332 331 330 330 330 330 330 330 331 331 331 330 330 329 328 328 325 323 322 322
337 336 334 333 332 330 331 333 336 337 338 337 337 337 337 336 337 337 337 337 337 336 337 336 336 336 335 335 335 335 334 334 334 334 333 334 334 334 333 333 332 332 332 331 331 330 330 330 330 331 331 332 331 331 330 329 328 327 324 320 319 321
339 338 337 334 332 331 332 334 337 338 338 337 337 337 337 337 337 338 338 337 336 336 336 336 336 336 334 335 336 335 335 335 334 334 334 335 334 333 333 333 332 332 332 331 331 330 330 330 330 331 332 332 332 331 331 329 328 326 322 320 318 320
339 339 337 335 333 333 335 335 337 338 338 338 337 337 337 337 338 338 337 337 336 336 336 336 337 336 334 335 335 334 334 334 334 334 335 335 334 333 332 332 333 332 332 331 331 330 330 330 330 330 332 333 332 332 331 329 327 325 322 321 320 321
338 338 335 334 335 334 335 336 337 337 336 336 337 337 336 337 337 337 337 336 336 336 336 336 336 336 335 335 335 333 334 334 334 334 334 335 334 333 332 332 333 332 331 331 330 330 329 330 330 330 332 332 332 332 332 330 327 325 324 323 323 323
338 338 336 336 335 334 335 336 336 335 334 334 336 337 336 336 337 337 337 336 336 336 336 335 335 335 335 335 335 333 333 333 334 334 334 334 334 333 332 332 332 331 331 331 330 330 330 330 330 329 330 331 331 331 332 330 328 326 325 325 325 325
338 338 337 336 335 334 335 335 335 335 335 335 335 336 336 336 336 337 337 336 336 336 335 335 335 335 336 335 334 333 333 333 333 333 333 334 335 333 332 332 332 331 331 330 330 331 330 330 330 330 330 331 331 332 331 331 329 328 327 326 326 326
336 336 335 334 334 334 333 334 335 335 335 336 336 336 336 336 337 337 337 336 336 336 336 335 335 335 335 335 334 334 333 333 334 333 333 334 334 333 332 332 331 331 330 330 331 331 331 330 331 331 331 330 331 331 331 331 331 330 329 329 328 328
334 334 335 335 336 334 333 335 335 335 335 336 336 336 336 336 336 336 337 336 336 336 335 335 335 335 335 335 334 334 333 333 334 334 333 333 334 333 332 331 331 331 330 330 331 331 331 331 330 330 330 330 330 330 330 330 330 330 329 329 329 329
334 334 336 334 335 336 335 335 335 335 336 337 337 337 336 336 336 336 336 336 335 335 335 335 334 335 334 335 334 333 333 334 334 334 333 333 333 333 332 331 331 331 330 330 331 331 331 331 330 330 330 330 330 329 330 329 329 329 329 329 329 329
335 335 336 335 335 336 336 336 336 335 336 337 337 337 337 336 337 336 335 335 335 335 335 335 334 334 334 334 334 333 333 334 334 334 333 332 332 332 332 331 331 331 330 330 330 331 331 330 329 329 328 329 329 329 330 329 328 328 328 328 328 328
335 335 335 335 334 335 336 335 336 336 337 336 336 337 337 336 336 336 334 334 335 335 335 335 334 334 334 334 333 333 333 332 333 334 333 333 332 332 333 332 331 331 330 330 330 331 330 330 329 328 327 328 328 329 330 329 328 328 328 327 327 327
334 334 333 333 333 335 335 336 335 336 337 336 336 336 336 335 335 334 334 334 334 335 335 335 335 334 334 334 334 333 333 332 332 333 333 332 332 332 333 332 331 331 331 330 331 330 330 330 329 328 327 327 328 329 328 328 329 328 328 328 327 328
334 333 333 333 333 333 334 335 335 335 336 336 336 336 335 335 334 333 333 334 334 334 335 335 335 334 334 334 334 333 333 331 332 333 332 332 332 333 333 332 331 331 331 330 331 331 330 330 329 328 327 327 328 328 327 327 328 328 328 328 328 328
333 334 333 333 333 333 334 335 335 335 336 336 336 335 335 335 335 334 334 334 334 333 334 334 334 334 334 334 334 334 333 332 332 333 332 333 333 333 333 332 332 332 331 331 331 331 330 331 330 329 328 329 329 328 327 327 327 327 328 329 329 328
333 334 333 334 334 333 334 334 335 335 336 336 336 335 334 334 334 335 334 334 334 333 333 334 334 334 334 333 333 333 332 333 333 334 334 334 334 334 333 332 332 331 332 332 331 331 331 330 330 330 329 330 329 328 327 327 327 327 327 328 329 328
333 333 334 334 333 333 333 334 335 335 336 336 335 335 334 334 334 334 334 334 333 333 333 333 333 333 333 333 333 333 333 334 334 334 335 334 334 334 333 333 333 332 332 332 331 331 331 330 331 330 330 330 329 327 327 326 327 327 326 327 328 328
333 333 333 333 333 333 333 334 335 335 335 335 335 335 334 334 333 334 334 333 333 333 333 333 333 332 332 332 333 333 334 334 334 335 335 334 334 334 334 334 333 332 332 332 331 331 331 331 331 330 330 330 329 328 328 326 326 327 326 326 326 327
333 333 333 333 333 334 334 335 335 335 335 335 335 335 334 333 333 333 334 333 333 333 333 332 332 332 332 333 333 333 334 334 335 335 335 334 334 334 334 335 334 332 332 332 332 332 331 331 331 330 330 331 330 329 328 327 327 326 326 326 326 326
333 333 333 333 332 332 334 335 335 335 334 333 333 334 334 334 333 333 334 334 333 333 333 332 332 332 332 333 333 333 334 334 334 335 335 334 334 334 334 334 334 333 332 332 332 332 332 332 331 330 330 330 330 329 328 327 327 326 326 326 325 325
332 333 333 333 333 332 333 334 335 334 334 333 330 331 333 333 333 334 333 333 332 332 332 332 332 332 332 332 333 333 333 334 334 335 335 334 333 333 333 333 333 333 333 332 332 332 331 332 331 330 330 330 330 329 328 327 327 326 326 326 325 325
331 332 332 332 332 333 333 334 334 334 335 333 330 329 331 333 333 333 333 332 332 332 332 332 332 332 332 332 333 333 334 334 334 334 334 334 333 334 333 333 333 333 332 332 331 332 332 332 331 331 331 330 330 329 328 328 327 326 326 325 325 325
332 332 332 332 332 333 333 334 334 335 334 334 332 329 331 334 334 333 332 331 331 332 332 332 332 332 332 333 333 333 333 333 333 332 333 333 333 333 333 333 332 332 332 332 332 331 331 332 332 331 331 330 330 329 329 329 328 327 326 325 325 326
332 332 332 332 332 332 333 334 334 334 335 334 333 332 332 334 333 332 332 331 331 332 332 331 332 332 332 333 333 332 333 332 332 331 331 332 332 333 333 332 332 332 332 332 332 331 330 330 331 331 330 330 330 329 329 329 329 328 327 326 325 326
Wind_Speed
22 22 21 20 20 21 20 18 19 18 18 19 18 18 18 18 17 17 16 15 15 15 14 15 15 15 15 14 14 15 15 16 16 16 17 17 17 18 19 19 17 15 14 14 14 13 12 13 14 13 11 10 11 12 12 12 12 13 14 15 15 14
23 23 22 22 22 23 21 20 19 19 19 19 18 17 17 18 17 17 16 16 16 15 15 15 14 15 15 13 13 14 15 16 16 16 16 17 17 17 18 18 17 16 14 13 13 12 11 13 13 12 11 11 11 12 11 11 11 12 13 13 14 13
25 25 23 23 23 23 22 21 21 21 21 20 18 18 18 18 18 17 17 16 16 15 14 14 14 15 15 13 13 14 15 15 16 16 16 17 17 16 16 18 18 16 13 12 11 10 11 13 13 12 11 10 10 11 10 11 11 12 13 13 13 12
25 25 24 24 23 23 22 22 22 22 21 20 19 19 19 19 18 18 17 16 15 13 13 12 12 14 14 13 13 14 15 15 16 17 16 16 16 16 15 17 18 16 13 11 10 10 10 12 12 11 10 9 9 10 10 11 11 12 13 13 12 12
23 24 24 24 24 24 23 22 23 22 20 20 20 20 20 20 19 17 17 16 14 13 12 11 12 13 14 14 13 14 15 15 15 16 17 16 15 15 15 16 18 16 12 11 10 10 9 10 10 10 9 8 8 9 10 11 11 11 12 13 13 12
22 23 24 24 24 24 22 23 24 22 20 20 20 21 21 21 19 17 17 16 15 13 12 12 13 13 14 15 14 14 14 14 13 14 16 16 15 15 15 16 16 14 12 11 10 8 7 7 8 8 8 8 8 10 10 11 11 11 11 11 12 11
21 23 23 22 23 22 21 23 23 21 20 20 21 22 22 21 19 18 18 18 16 14 13 14 13 13 15 15 14 13 13 12 12 14 16 17 16 15 15 15 15 13 12 11 9 6 5 6 5 5 6 8 9 10 10 10 10 10 10 11 11 10
20 21 21 21 21 20 21 23 22 20 20 20 21 22 22 21 19 18 19 18 16 15 15 15 14 14 14 14 13 12 12 12 12 13 15 16 16 15 15 15 14 12 11 10 7 4 4 6 5 3 6 8 9 10 10 10 10 10 11 12 11 10
19 20 21 20 20 20 21 22 21 20 20 21 21 21 21 21 20 20 19 17 16 16 16 16 14 13 13 13 12 11 10 11 11 13 15 16 16 15 15 15 13 12 10 8 6 4 5 7 6 5 7 8 10 10 10 11 10 10 11 12 12 10
18 19 20 20 19 20 21 22 21 20 21 21 20 20 20 20 20 20 19 17 16 16 16 15 14 13 13 12 12 11 10 11 12 13 14 15 15 15 15 14 12 11 10 8 6 6 6 8 7 7 7 9 10 11 11 11 10 10 11 12 12 9
18 18 18 17 17 17 18 19 20 20 21 21 20 20 20 20 19 19 18 17 17 16 16 15 14 14 13 13 12 12 11 12 13 13 14 14 15 15 15 13 11 10 9 7 5 6 8 8 7 8 8 9 11 12 12 11 10 10 11 12 11 9
21 21 21 20 19 17 16 17 17 19 21 22 21 21 21 20 19 18 17 17 17 16 15 15 14 14 14 14 14 13 12 12 13 13 14 14 14 15 14 11 10 9 8 7 6 6 8 7 7 8 9 10 12 13 13 12 11 11 11 12 11 9
23 23 24 24 23 22 21 20 19 20 21 22 23 23 22 20 19 17 17 18 17 16 16 15 15 15 15 15 15 13 12 11 11 13 13 13 13 13 13 11 10 10 8 8 8 8 9 8 8 8 9 12 13 13 13 12 11 11 11 11 11 11
27 28 27 26 26 25 25 24 23 23 23 24 23 22 21 19 18 18 18 18 17 17 17 16 16 16 15 15 14 13 12 10 11 13 13 13 12 13 12 11 11 11 9 9 9 9 10 10 9 8 10 13 14 14 13 12 11 11 11 11 10 12
27 29 29 28 28 27 26 25 24 24 25 25 23 22 21 20 19 19 19 18 17 17 18 18 18 17 17 15 14 13 12 11 11 12 14 14 13 13 12 12 12 12 11 10 10 11 11 10 10 10 11 12 14 14 13 12 11 11 10 10 10 12
21 25 28 28 29 28 27 26 24 24 26 25 24 22 21 21 20 20 19 17 17 18 18 19 19 18 18 15 13 13 14 14 13 13 14 14 13 13 13 14 13 11 12 13 12 12 11 10 11 11 11 12 14 14 13 12 11 11 10 9 10 11
20 24 26 27 29 28 26 25 24 24 25 25 24 23 22 22 21 21 19 18 18 19 19 20 20 19 18 16 14 14 16 17 16 16 15 13 12 13 15 15 13 11 12 13 14 13 12 11 11 12 13 12 13 13 12 12 11 11 10 9 10 10
26 28 30 31 29 23 21 22 22 21 22 23 23 23 23 23 22 21 20 20 19 20 20 21 22 19 18 17 15 16 18 18 18 18 17 14 12 14 14 13 13 13 13 13 15 15 14 12 11 13 15 13 11 11 11 12 11 10 9 9 9 10
33 34 35 33 25 19 21 23 20 18 19 22 22 22 23 23 23 22 21 20 21 21 21 22 23 21 19 18 17 17 18 18 18 18 18 15 13 14 13 13 14 15 15 14 14 16 17 15 14 14 14 12 10 9 10 11 10 10 9 9 9 9
38 39 35 29 22 21 24 26 23 20 19 21 22 22 23 24 24 24 22 20 21 22 23 23 23 21 20 19 18 17 18 18 18 18 18 16 15 14 14 15 16 17 17 15 15 16 17 18 17 16 14 12 9 8 8 9 9 9 9 9 9 9
27 28 26 20 19 22 24 25 24 21 21 21 21 22 23 24 25 23 22 20 22 23 23 23 22 21 20 20 19 18 18 18 17 18 17 16 15 14 14 15 17 18 17 18 18 17 18 20 19 15 14 12 9 8 7 8 8 8 10 11 10 9
16 19 23 22 25 28 28 27 25 23 23 23 21 22 22 24 24 22 21 20 21 22 22 22 21 20 20 19 19 19 19 18 18 17 16 16 15 14 15 16 18 19 18 19 20 19 21 19 15 13 12 10 8 7 4 4 4 4 6 8 9 8
22 24 29 34 38 39 37 33 29 25 23 21 21 22 22 22 21 21 20 19 19 19 20 21 20 18 18 18 19 19 19 18 18 18 17 17 16 15 16 16 18 20 19 19 19 20 20 16 15 17 12 5 3 3 2 1 2 2 3 3 5 5
30 30 32 38 40 41 39 34 30 25 22 20 19 20 20 20 20 20 19 18 18 18 18 19 19 18 17 18 19 18 18 18 19 19 18 18 18 18 18 18 19 20 20 19 18 18 17 15 19 18 9 3 1 1 1 2 3 2 1 2 2 3
32 32 32 32 31 33 33 29 25 21 17 17 17 19 20 19 20 19 19 19 19 19 18 18 17 17 17 18 19 18 17 17 18 19 19 20 20 19 19 20 21 21 21 19 19 19 17 14 18 19 12 6 3 1 1 3 4 2 1 3 3 3
28 26 22 19 18 25 31 29 25 22 20 20 18 20 21 20 20 19 18 19 19 19 18 17 17 16 16 17 18 17 17 17 17 19 20 21 21 19 19 20 21 21 20 19 19 21 19 15 17 17 13 9 4 2 6 8 5 0 1 4 4 3
18 16 13 12 14 19 26 29 29 28 27 25 21 19 20 20 20 18 18 19 19 19 18 17 17 16 15 16 17 17 16 16 18 19 20 21 21 20 20 20 21 21 19 19 19 22 22 18 18 18 13 9 2 2 11 13 6 3 2 3 5 5
9 11 10 11 14 17 19 22 25 25 23 22 20 18 19 19 19 19 20 20 19 19 18 17 17 16 15 15 16 16 16 17 18 20 20 21 21 19 20 20 21 21 20 20 18 20 23 21 20 19 15 11 5 5 14 14 11 9 4 1 4 5
5 6 7 9 12 15 14 15 18 20 19 19 19 18 19 19 19 19 20 19 18 18 18 17 16 16 15 16 16 15 16 18 19 19 19 19 19 19 20 20 21 22 20 19 17 18 22 23 22 21 16 11 6 11 15 11 11 12 6 3 3 3
4 4 6 7 8 11 11 12 14 16 16 17 18 17 18 18 19 19 19 19 19 19 19 17 16 16 16 16 16 15 17 19 19 19 19 19 20 20 21 20 19 20 20 19 18 18 21 22 22 21 17 12 11 14 12 7 11 12 8 5 3 3
6 4 6 6 6 8 10 10 12 14 16 18 19 18 18 18 19 19 19 19 19 20 19 18 16 16 16 16 17 17 18 19 19 19 18 18 21 22 21 20 18 18 19 19 19 19 20 21 20 20 17 13 13 15 13 11 15 17 12 7 5 5
6 4 6 7 6 6 8 9 12 14 17 19 20 21 21 21 21 20 20 19 19 19 19 18 17 17 17 17 18 18 18 18 19 18 17 17 20 21 21 20 19 18 18 19 20 19 21 21 20 21 19 14 13 14 16 16 18 21 17 14 12 8
5 4 6 8 9 10 10 10 13 16 18 19 20 22 22 22 21 21 21 20 20 20 20 19 18 18 19 19 20 19 18 19 19 18 17 17 18 19 20 20 19 18 18 18 19 19 20 20 19 21 20 16 14 15 17 16 17 20 18 16 16 11
5 7 9 11 12 15 17 16 16 18 19 19 20 21 22 21 20 20 21 21 21 22 22 21 20 20 19 19 19 19 17 17 18 18 18 17 17 18 19 18 18 18 18 17 18 18 18 18 18 19 20 18 15 16 17 15 15 19 18 18 19 16
4 7 11 12 12 14 19 22 21 21 21 20 20 20 22 21 20 20 22 22 22 23 23 22 21 20 20 19 19 18 17 17 17 18 18 18 18 18 17 17 17 17 17 16 16 17 17 17 17 18 19 17 15 16 17 14 14 18 19 18 20 23
6 8 9 11 11 12 16 20 21 22 22 21 20 20 21 20 19 20 22 22 23 23 23 21 20 20 20 19 19 18 17 17 17 18 18 17 17 18 18 17 17 17 17 16 16 16 17 17 17 17 17 16 15 16 17 15 14 16 18 18 20 25
8 11 11 11 12 13 15 18 19 21 23 23 21 21 21 21 20 20 21 22 22 23 22 20 20 21 21 20 19 19 18 18 17 17 17 17 17 18 18 17 18 18 17 16 15 15 15 16 17 17 16 16 15 15 17 17 15 16 18 18 20 25
Wind_Direction
175 176 179 180 176 175 175 176 176 173 170 167 167 167 161 156 154 154 155 159 161 160 158 156 157 158 154 148 139 137 134 132 132 129 131 130 133 142 147 151 147 138 126 108 97 89 94 114 123 126 128 121 112 102 99 106 114 119 121 121 117 114
178 180 182 180 177 175 175 178 177 173 171 169 169 169 164 162 157 154 158 162 163 160 158 158 160 161 158 152 144 141 138 135 136 134 135 135 134 137 145 153 152 144 130 109 103 97 98 120 130 130 129 124 112 102 101 107 113 120 122 121 119 119
181 183 184 180 178 175 177 180 178 174 173 171 172 173 170 167 163 160 163 165 165 162 161 162 165 165 161 157 149 144 143 138 140 140 139 140 139 136 141 153 156 149 132 111 110 104 103 124 138 139 133 124 110 100 102 109 114 118 119 118 120 121
183 184 184 180 177 177 180 182 181 177 175 174 176 177 175 172 170 169 167 166 167 164 165 168 171 172 168 164 154 148 149 145 144 144 145 145 144 140 140 151 157 152 135 118 115 108 104 118 134 140 136 124 108 103 107 114 117 119 121 122 122 123
184 185 184 181 179 180 183 184 183 180 179 178 180 180 178 177 175 173 169 167 169 167 169 172 179 182 178 173 163 153 152 151 148 148 150 150 148 144 143 151 158 155 140 127 118 108 107 114 128 138 138 130 118 116 116 119 122 122 123 128 131 133
184 187 187 185 182 183 186 186 184 184 184 182 184 183 180 180 178 175 172 172 173 171 173 177 183 185 182 181 174 162 157 157 155 154 156 154 151 148 149 155 159 158 149 140 126 112 113 120 130 139 142 138 132 129 124 124 126 124 124 130 137 138
186 188 188 187 186 186 189 188 186 187 187 186 187 185 183 184 180 178 177 178 178 177 180 184 185 182 180 182 182 175 168 168 165 162 162 159 156 153 155 159 161 161 159 153 141 128 138 150 147 147 154 149 144 139 132 131 129 128 131 132 133 134
187 188 187 189 189 190 191 189 188 190 190 188 189 188 186 186 183 183 182 183 183 183 187 189 187 183 182 183 183 179 173 174 172 168 167 164 161 159 161 163 164 165 166 162 157 157 167 174 183 186 173 160 154 149 141 139 137 136 137 136 138 140
191 190 191 193 193 195 194 191 192 194 192 190 191 190 189 188 186 187 185 186 189 190 193 194 190 185 184 181 175 171 169 171 171 169 168 168 167 166 169 171 172 172 170 169 173 189 182 176 184 186 181 172 163 157 149 147 146 144 144 147 148 148
195 195 196 196 197 200 197 196 197 197 195 192 191 190 190 189 189 190 189 188 193 197 198 196 193 188 184 178 170 165 163 162 159 159 162 166 167 169 173 175 175 173 174 176 185 203 191 174 169 170 181 181 170 162 157 154 151 150 151 153 152 149
199 200 201 199 201 205 202 202 203 200 196 194 191 190 190 190 192 194 194 194 197 201 202 200 197 192 185 178 173 168 162 157 153 148 151 157 161 165 172 176 175 173 176 177 178 191 184 174 168 169 180 182 174 166 161 157 154 154 153 153 152 150
201 201 201 201 204 207 208 210 211 207 200 195 193 193 193 193 196 198 200 201 203 204 204 205 202 196 189 180 175 173 169 164 159 154 154 159 162 167 176 180 178 175 174 172 169 172 175 182 183 176 177 178 173 168 163 161 159 157 155 156 155 148
198 201 203 205 206 207 209 211 214 213 208 202 198 198 198 197 198 200 202 204 208 209 208 209 205 199 192 183 179 180 179 175 172 168 167 170 170 174 183 180 176 175 169 164 162 164 175 190 191 181 175 172 170 168 165 163 163 160 157 160 157 147
198 202 204 206 208 208 209 211 211 212 212 208 203 202 201 201 202 201 201 205 209 209 208 208 205 201 193 187 188 189 188 185 182 177 177 179 178 181 183 177 175 175 167 165 167 170 182 187 184 180 171 167 168 168 168 166 166 164 161 161 156 150
198 202 202 203 207 209 212 213 210 210 212 209 206 204 204 203 205 204 203 206 208 207 207 207 206 202 195 193 198 198 192 191 190 186 187 186 184 186 185 182 183 182 172 169 171 170 179 183 175 172 166 164 168 169 170 169 168 168 165 161 157 157
200 205 204 204 206 208 211 211 210 212 212 210 208 207 207 208 207 207 207 207 207 205 206 208 208 205 201 201 206 204 194 192 198 200 198 191 188 193 192 185 183 185 179 170 170 167 171 178 167 161 161 164 170 172 173 172 172 171 166 162 158 161
203 211 213 212 211 211 209 208 212 215 214 212 212 210 210 212 211 210 213 211 208 207 208 211 210 208 208 209 210 206 196 193 201 207 205 196 187 188 187 180 170 176 184 174 170 165 160 162 151 149 155 161 169 173 175 175 177 176 169 165 162 164
199 209 217 218 215 210 206 210 215 219 218 214 214 215 214 216 215 215 217 215 210 208 210 212 211 210 211 213 212 207 199 195 202 208 208 201 186 182 183 180 167 170 181 175 170 165 155 147 135 139 147 153 166 174 179 181 182 182 179 175 169 169
199 205 214 217 211 203 206 214 220 223 225 221 217 215 216 218 218 219 219 214 210 209 211 211 210 210 210 211 211 207 202 197 202 208 209 203 188 183 182 178 170 169 173 171 171 165 154 141 129 133 141 148 161 173 180 184 186 188 187 186 182 180
202 202 205 208 203 200 206 213 218 219 222 225 223 218 217 219 220 220 218 212 209 209 211 211 208 209 208 208 209 209 206 201 202 207 210 206 196 191 183 174 171 172 172 163 159 159 153 141 127 122 128 140 156 171 180 182 189 195 195 198 197 192
205 194 185 193 203 203 202 207 211 212 215 219 223 222 218 219 220 218 216 212 210 209 212 211 208 208 207 207 209 210 209 205 203 205 210 211 204 195 182 175 174 177 176 160 151 154 153 141 125 115 115 118 131 153 176 185 190 202 204 204 203 203
199 175 176 194 208 207 204 205 207 211 216 215 218 222 220 220 220 219 218 215 211 211 212 210 207 207 208 208 210 210 209 207 206 206 207 208 205 193 181 180 179 177 174 163 156 157 157 146 126 119 119 110 108 121 148 178 191 219 224 212 207 215
195 186 194 202 204 202 201 204 208 212 215 212 214 221 224 223 221 222 223 218 214 213 212 209 207 207 208 207 209 211 210 208 207 205 200 198 200 194 183 185 186 179 170 161 157 160 164 160 139 125 119 117 106 104 109 122 166 216 241 229 208 214
205 202 209 211 206 200 197 198 203 208 213 213 214 220 223 224 223 224 222 217 215 213 213 213 209 208 208 208 209 211 210 208 206 203 200 198 198 195 188 187 189 185 175 162 156 161 167 168 158 144 125 100 85 124 177 137 128 137 247 251 213 210
213 210 215 217 208 196 190 187 190 197 206 208 209 214 216 217 219 218 215 213 213 213 216 217 212 208 209 210 210 210 211 211 208 205 204 204 200 195 192 190 188 187 186 176 166 166 168 171 174 167 153 137 123 196 198 145 142 127 227 226 206 212
217 217 221 222 211 194 187 184 186 194 199 197 197 203 208 211 211 207 209 213 213 213 215 215 213 210 208 209 209 210 214 216 212 206 204 205 200 196 195 193 190 190 194 191 178 170 170 177 186 182 168 154 147 199 171 146 144 132 183 199 201 206
229 229 228 224 215 199 192 191 194 199 201 197 194 197 206 214 212 207 212 217 214 212 213 213 212 212 211 209 209 212 216 216 211 204 201 201 197 196 198 195 192 194 198 199 188 176 175 179 189 193 191 185 188 202 172 160 160 164 152 190 195 191
263 234 229 224 213 203 203 205 200 196 198 199 195 196 205 216 218 213 213 215 216 215 213 213 212 212 212 210 211 214 213 210 206 200 197 197 195 195 198 196 194 197 202 204 200 189 183 183 190 197 201 209 232 189 176 174 172 163 137 140 168 179
266 243 247 246 224 210 217 223 207 195 196 199 198 200 205 213 218 216 214 215 217 217 215 213 212 212 214 213 212 210 204 202 199 195 193 193 195 195 195 195 195 199 205 207 208 202 193 192 197 199 197 199 183 164 173 180 174 164 146 148 155 159
238 284 274 270 251 232 238 238 215 202 198 198 199 200 199 205 212 213 214 216 217 218 216 215 213 212 214 213 208 202 198 198 196 194 194 192 193 195 194 195 196 199 207 211 211 211 207 205 204 200 199 196 172 161 165 169 173 169 153 150 153 150
216 260 261 269 267 251 255 248 223 210 207 204 203 201 197 199 205 208 211 215 217 217 218 218 217 213 210 206 200 196 195 197 196 195 198 197 196 197 196 196 197 201 209 214 215 217 217 217 211 203 205 210 197 186 185 186 184 177 164 153 147 147
192 223 237 246 252 256 261 249 232 222 215 211 210 208 205 203 205 207 210 213 214 216 218 217 215 208 201 197 195 195 195 197 198 199 202 203 203 202 200 200 201 203 209 214 217 221 220 221 217 208 208 218 221 216 209 203 193 186 181 171 159 150
170 185 213 229 234 241 244 239 232 227 223 220 217 216 214 212 212 211 209 210 212 214 214 211 209 203 196 193 195 197 198 198 200 204 205 204 203 203 201 201 203 204 209 212 216 221 221 223 223 216 214 220 229 227 217 211 201 194 189 172 158 149
173 186 205 216 223 225 225 225 224 224 226 225 222 222 221 220 219 214 209 208 210 211 208 206 205 202 197 196 197 197 198 198 201 205 206 204 201 200 200 202 205 207 210 213 216 219 220 224 226 220 218 222 230 226 217 214 206 197 191 177 164 155
188 204 212 211 214 217 217 219 220 222 225 224 223 225 225 224 222 215 209 209 210 208 205 204 204 203 199 196 196 196 196 196 198 201 202 202 202 202 204 206 207 209 211 212 213 215 218 221 221 218 218 222 227 223 215 214 212 205 200 191 180 168
207 204 203 204 213 220 216 216 220 223 224 225 224 223 223 223 221 216 211 210 210 207 203 204 202 198 196 194 194 194 194 194 196 198 200 202 205 207 207 207 207 208 210 211 211 213 217 219 218 218 218 220 222 220 218 218 215 212 209 202 192 180
209 198 199 208 218 225 217 209 216 224 225 225 224 222 221 220 218 218 215 212 210 206 204 206 202 194 192 194 195 195 195 195 197 199 200 204 207 207 206 206 207 209 211 211 210 211 215 217 218 219 218 218 220 222 222 222 220 217 213 206 196 188